Weather History for Kalamazoo, MI

Change the Weather History Date:

Tuesday, October 28, 2014

  Actual Average Record
Temperature  
Mean Temperature 58 °F 47 °F  
Max Temperature 69 °F 56 °F 74 °F (1984)
Min Temperature 46 °F 39 °F 27 °F (2011)
Degree Days  
Heating Degree Days 7 18  
Month to date heating degree days 377 388  
Since 1 July heating degree days 558 537  
Cooling Degree Days 0 0  
Month to date cooling degree days 0 7  
Year to date cooling degree days 609 674  
Growing Degree Days 10 (Base 50)    
Moisture  
Dew Point 48 °F    
Average Humidity 63    
Maximum Humidity 84    
Minimum Humidity 42    
Precipitation  
Precipitation 0.26 in 0.11 in 0.86 in (1973)
Month to date precipitation 4.74 3.04  
Year to date precipitation 24.35 30.45  
Sea Level Pressure  
Sea Level Pressure 29.78 in    
Wind  
Wind Speed 13 mph (WSW)    
Max Wind Speed 25 mph    
Max Gust Speed 32 mph    
Visibility 8 miles    
Events Rain , Thunderstorm    
T = Trace of Precipitation, MM = Missing Value Source: NWS Daily Summary

Daily Weather History Graph

Daily Weather History Graph

Search for Another Location

Airport:

Trip Planner

Search our weather history database for the weather conditions in past years. The results will help you decide how hot, cold, wet, or windy it might be!

Date:

Astronomy

Oct. 28, 2014 Rise Set
Actual Time 8:10 AM EDT 6:40 PM EDT
Civil Twilight 7:41 AM EDT 7:09 PM EDT
Nautical Twilight 7:08 AM EDT 7:42 PM EDT
Astronomical Twilight 6:35 AM EDT 8:15 PM EDT
Moon 12:41 PM EDT (10/28) 10:44 PM EDT (10/28)
Length of Visible Light 11h 28m
Length of Day
10h 30m
Waxing Crescent, 24% of the Moon is Illuminated
Oct 28
Waxing Crescent
Oct 30
First Quarter
Nov 6
Full
Nov 14
Last Quarter
Nov 22
New

Hourly Weather History & Observations

Time (EDT) Temp. Dew Point Humidity Pressure Visibility Wind Dir Wind Speed Gust Speed Precip Events Conditions
12:53 AM 70.0 °F 50.0 °F 49% 29.70 in 10.0 mi SSW 13.8 mph 25.3 mph N/A   Scattered Clouds
1:53 AM 66.0 °F 53.1 °F 63% 29.72 in 10.0 mi SW 9.2 mph - 0.00 in Rain Light Rain
2:53 AM 68.0 °F 52.0 °F 56% 29.69 in 10.0 mi SSW 19.6 mph 26.5 mph 0.00 in   Mostly Cloudy
3:53 AM 64.0 °F 55.9 °F 75% 29.69 in 5.0 mi SW 15.0 mph 29.9 mph 0.03 in Rain , Thunderstorm Light Rain
4:16 AM 63.0 °F 55.9 °F 78% 29.69 in 6.0 mi SSW 12.7 mph - 0.05 in Rain , Thunderstorm Light Thunderstorms and Rain
4:33 AM 62.1 °F 57.0 °F 84% 29.69 in 5.0 mi SW 12.7 mph 23.0 mph 0.09 in Rain , Thunderstorm Rain
4:45 AM 62.1 °F 57.9 °F 86% 29.68 in 5.0 mi SSW 11.5 mph - 0.12 in Rain Light Rain
4:53 AM 62.1 °F 57.9 °F 86% 29.68 in 6.0 mi SSW 12.7 mph - 0.13 in Rain Light Rain
5:53 AM 57.9 °F 55.9 °F 93% 29.70 in 9.0 mi South 5.8 mph - 0.00 in   Mostly Cloudy
6:53 AM 60.8 °F 55.4 °F 82% 29.69 in 10.0 mi SW 8.1 mph - N/A Rain Light Rain
7:53 AM 60.8 °F 57.2 °F 88% 29.71 in 10.0 mi SW 10.4 mph - N/A   Overcast
8:20 AM 61.0 °F 57.0 °F 87% 29.70 in 5.0 mi WSW 12.7 mph - 0.01 in Rain Light Rain
8:53 AM 61.0 °F 57.0 °F 87% 29.72 in 6.0 mi West 13.8 mph - 0.01 in Rain Light Rain
9:04 AM 60.1 °F 55.9 °F 86% 29.73 in 2.5 mi WSW 17.3 mph - 0.03 in Rain Rain
9:36 AM 57.9 °F 55.0 °F 90% 29.74 in 4.0 mi West 12.7 mph 20.7 mph 0.07 in Rain Light Rain
9:53 AM 57.9 °F 54.0 °F 87% 29.74 in 7.0 mi West 10.4 mph - 0.07 in   Overcast
10:53 AM 57.0 °F 52.0 °F 83% 29.77 in 10.0 mi WSW 11.5 mph - N/A   Overcast
10:57 AM 57.0 °F 52.0 °F 83% 29.77 in 10.0 mi WSW 11.5 mph - N/A   Overcast
11:53 AM 57.0 °F 48.9 °F 74% 29.80 in 10.0 mi West 15.0 mph 25.3 mph N/A   Mostly Cloudy
12:53 PM 57.0 °F 46.0 °F 67% 29.82 in 10.0 mi West 16.1 mph 23.0 mph N/A   Partly Cloudy
1:53 PM 60.1 °F 41.0 °F 49% 29.82 in 10.0 mi West 21.9 mph - N/A   Clear
2:53 PM 61.0 °F 37.9 °F 42% 29.81 in 10.0 mi West 20.7 mph 27.6 mph N/A   Clear
3:53 PM 59.0 °F 37.9 °F 46% 29.83 in 10.0 mi West 19.6 mph 31.1 mph N/A   Clear
4:53 PM 57.9 °F 37.0 °F 46% 29.85 in 10.0 mi West 16.1 mph 25.3 mph N/A   Clear
5:53 PM 55.9 °F 36.0 °F 47% 29.87 in 10.0 mi West 13.8 mph 23.0 mph N/A   Clear
6:53 PM 54.0 °F 36.0 °F 51% 29.89 in 10.0 mi West 13.8 mph - N/A   Partly Cloudy
7:53 PM 53.1 °F 37.0 °F 55% 29.92 in 10.0 mi West 11.5 mph - N/A   Scattered Clouds
8:53 PM 52.0 °F 37.0 °F 57% 29.92 in 10.0 mi West 11.5 mph 20.7 mph N/A   Partly Cloudy
9:53 PM 51.1 °F 36.0 °F 56% 29.93 in 10.0 mi West 11.5 mph - N/A   Mostly Cloudy
10:53 PM 51.1 °F 36.0 °F 56% 29.93 in 10.0 mi WNW 13.8 mph - N/A   Overcast
11:53 PM 48.9 °F 35.1 °F 59% 29.93 in 10.0 mi West 10.4 mph - N/A   Clear